DMSP 5D-2 F13 DEB, 40399

Orbit data source: Space-Track

DMSP 5D-2 F13 DEB, 40399 is space debris in SSO originally from a launch on Fri, 24 Mar 1995 UTC launched from the Air Force Western Test Range (AFWTR). Debris objects in space refer to the collection of defunct objects orbiting the Earth. Examples of debris include non-operational satellites, rocket bodies, and fragments generated from explosions, collisions, or faulty payload assembly.

Loading next visibility...
Identifier
40399, 1995-015L
Orbit
SSO
Country
Flag of USUS
Related business
Manufacturer
Unknown
Mission
Spacecraft
Bus & Motor
Unknown
Mass
Unknown
Launch date (UTC)
1995-03-24 (31 years ago)
Launch vehicle
Unknown
Launch site
Air Force Western Test Range (AFWTR)
Object type
Payload
Rocket body
Debris
Shape & HBR
Unknown shape, 0.1 m
Radar Cross Section
Small (<0.1 m²)

Expand to show TLE details & history
Last TLE update: 9 hours ago

TLE from 9 hours ago
0 DMSP 5D-2 F13 DEB
1 40399U 95015L   26035.63639803  .00003803  00000-0  14256-2 0  9993
2 40399  98.7101  65.5774 0008285 357.5549   2.5592 14.32256870567478
Epoch: 2026-02-04T15:16Z
TLE epoch observation values (Epoch: 2026-02-04T15:16:24.789Z)
Latitude
-0.00008°
Longitude
61.67399°
Altitude
781.199 km
Speed
7.466 km/s
True Right ascension
04h 22m 18s
True Declination
0° 00' 00"
Sunlit
Object was in daylight at epoch
Visualization orbit readout
Latitude
Unknown
Longitude
Unknown
Altitude
Unknown
Speed
Unknown
Apparent Right ascension
Unknown
Apparent Declination
Unknown
Sunlit
N/A
Visualization observer readout
Local Sidereal Time
02:32:01
Azimuth
Unknown
Elevation
Unknown
Doppler factor
Unknown
Orbital elements
Apogee altitude
787.271 km
Perigee altitude
775.408 km
Semi-major axis
7,159.476 km
Eccentricity
0.00083
Inclination
98.7101°
RAAN
65.5774°
Arg. of periapsis
357.5549°
True anomaly
2.56344°
Mean anomaly
2.5592°
Eccentric anomaly
2.56132°
Mean motion
3.58279 °/min
Orbital period
100.48 mins
BSTAR
0.0014256
Loading maneuver chart data...
Computing Atmospheric mass density...

Documentation

Showing up to 5 results
|